ARIANE 44LP DEB, 48351

Orbit data source: Space-Track

ARIANE 44LP DEB, 48351 is space debris in HEO originally from a launch on Sun, 11 Dec 1988 UTC launched from the French Guiana (FRGUI). Debris objects in space refer to the collection of defunct objects orbiting the Earth. Examples of debris include non-operational satellites, rocket bodies, and fragments generated from explosions, collisions, or faulty payload assembly.

Loading next visibility...
Identifier
48351, 1988-109X
Orbit
HEO
Country
Flag of FRFR
Related business
Manufacturer
Unknown
Mission
Spacecraft
Bus & Motor
Unknown
Mass
Unknown
Launch date (UTC)
1988-12-11 (38 years ago)
Launch vehicle
Unknown
Launch site
French Guiana (FRGUI)
Object type
Payload
Rocket body
Debris
Shape & HBR
Unknown shape, 1.1 m
Radar Cross Section
Medium (>0.1 m² and <1 m²)

Expand to show TLE details & history
Last TLE update: 2 years ago

TLE from 2 years ago
0 ARIANE 44LP DEB
1 48351U 88109X   25022.03929840  .00001069  00000-0  36153-2 0  9999
2 48351   7.4816 258.4657 6911856 282.1999  13.6309  2.63670480 87005
Epoch: 2025-01-22T00:56Z
TLE epoch observation values (Epoch: 2025-01-22T00:56:35.381Z)
Latitude
0.00023°
Longitude
122.86843°
Altitude
3,745.184 km
Speed
7.793 km/s
True Right ascension
17h 14m 36s
True Declination
0° 00' 01"
Sunlit
Object was in daylight at epoch
Visualization orbit readout
Latitude
Unknown
Longitude
Unknown
Altitude
Unknown
Speed
Unknown
Apparent Right ascension
Unknown
Apparent Declination
Unknown
Sunlit
N/A
Visualization observer readout
Local Sidereal Time
08:33:12
Azimuth
Unknown
Elevation
Unknown
Doppler factor
Unknown
Orbital elements
Apogee altitude
31,060.486 km
Perigee altitude
458.242 km
Semi-major axis
22,137.501 km
Eccentricity
0.69119
Inclination
7.4816°
RAAN
258.4657°
Arg. of periapsis
282.1999°
True anomaly
77.76561°
Mean anomaly
13.6309°
Eccentric anomaly
38.02709°
Mean motion
0.65895 °/min
Orbital period
546.33 mins
BSTAR
0.0036153
Loading maneuver chart data...
Computing Atmospheric mass density...
Loading historical data...
Loading historical data...
Loading historical data...
Loading historical data...
Loading historical data...
Loading historical data...
Loading historical data...

Documentation

Showing up to 5 results
|